OSCAR 7 (AO-7) 1 07530U 74089B 25354.30518721 -.00000039 00000+0 45671-4 0 9998 2 07530 101.9964 0.6523 0012388 112.3654 260.4241 12.53694398338101 PHASE 3B (AO-10) 1 14129U 83058B 25354.16967095 -.00000230 00000+0 00000+0 0 9997 2 14129 26.0401 249.9099 6064431 65.7090 344.6415 2.05874410291803 UOSAT 2 (UO-11) 1 14781U 84021B 25354.44830617 .00001221 00000+0 13174-3 0 9992 2 14781 97.7822 317.3573 0009083 60.6972 299.5153 14.90165171230506 LUSAT (LO-19) 1 20442U 90005G 25354.57013075 .00000094 00000+0 50558-4 0 9992 2 20442 98.8956 6.3575 0011790 15.2672 344.8865 14.34047650876795 EYESAT A (AO-27) 1 22825U 93061C 25354.41088819 .00000094 00000+0 53020-4 0 9992 2 22825 98.7136 56.6961 0007321 263.8924 96.1425 14.30879354681438 ITAMSAT (IO-26) 1 22826U 93061D 25354.44323714 .00000111 00000+0 58960-4 0 9990 2 22826 98.7084 56.6285 0007929 245.4449 114.5908 14.31300413681743 RADIO ROSTO (RS-15) 1 23439U 94085A 25354.58485409 .00000007 00000+0 14109-2 0 9992 2 23439 64.8155 232.0637 0150010 37.0301 324.0865 11.27583315275767 JAS-2 (FO-29) 1 24278U 96046B 25354.38852567 -.00000027 00000+0 87439-5 0 9996 2 24278 98.5458 222.4972 0349494 200.1071 158.6010 13.53262929448982 TECHSAT 1B (GO-32) 1 25397U 98043D 25354.50401866 .00000040 00000+0 37448-4 0 9992 2 25397 98.9927 337.8955 0001814 45.0313 315.1012 14.24379082425893 ISS (ZARYA) 1 25544U 98067A 25354.60225114 .00006881 00000+0 12984-3 0 9999 2 25544 51.6321 103.5427 0003193 277.2005 82.8620 15.49685042544071 PCSAT (NO-44) 1 26931U 01043C 25354.28002452 .00000126 00000+0 78015-4 0 9994 2 26931 67.0515 346.9785 0007419 269.5107 90.5145 14.31858766264836 SAUDISAT 1C (SO-50) 1 27607U 02058C 25354.36114807 .00001456 00000+0 19159-3 0 9999 2 27607 64.5532 322.0423 0072561 295.1454 64.2136 14.82420220237948 CUTE-1 (CO-55) 1 27844U 03031E 25354.24784514 .00000277 00000+0 13915-3 0 9993 2 27844 98.6762 0.0540 0009386 351.8021 8.3003 14.24185337166207 CUBESAT XI-IV (CO-57) 1 27848U 03031J 25354.49916766 .00000215 00000+0 11361-3 0 9995 2 27848 98.6791 0.1579 0009608 9.1772 350.9580 14.23492587165953 MOZHAETS 4 (RS-22) 1 27939U 03042A 25354.65936640 .00000884 00000+0 14594-3 0 9992 2 27939 98.3358 169.0695 0012351 112.3278 316.5553 14.72989998189260 CUBESAT XI-V 1 28895U 05043F 25354.39523295 .00001241 00000+0 20608-3 0 9997 2 28895 98.2729 141.6027 0015147 55.4537 304.8096 14.71925921 75440 CUTE-1.7+APD II (CO-65) 1 32785U 08021C 25351.68477250 .00005656 00000+0 38073-3 0 9996 2 32785 97.8081 324.8433 0007829 290.5969 69.4418 15.07103756957832 SEEDS II (CO-66) 1 32791U 08021J 25354.44742117 .00012252 00000+0 48644-3 0 9992 2 32791 97.7443 339.8589 0002236 171.9570 188.1704 15.25493197959970 YUBILEINY (RS-30) 1 32953U 08025A 25354.59747440 -.00000097 00000+0 -76648-3 0 9997 2 32953 82.5029 106.5362 0018721 343.6575 16.3899 12.43171568797507 KKS-1 (KISEKI) 1 33499U 09002H 25354.50422210 .00001146 00000+0 14976-3 0 9995 2 33499 98.1184 269.2139 0008657 140.8765 219.3075 14.82458543909717 SWISSCUBE 1 35932U 09051B 25354.23096661 .00000951 00000+0 19964-3 0 9995 2 35932 98.4147 253.9460 0007962 54.4223 305.7718 14.61977298863002 BEESAT-1 1 35933U 09051C 25354.28828920 .00000795 00000+0 17097-3 0 9993 2 35933 98.4077 254.0013 0006504 67.0346 293.1540 14.61294785863059 ITUPSAT1 1 35935U 09051E 25354.26132803 .00000725 00000+0 16093-3 0 9999 2 35935 98.4167 253.3456 0008754 75.0140 285.2028 14.60048507862627 XIWANG-1 (HOPE-1) 1 36122U 09072B 25354.56958821 -.00000549 00000+0 -13212-2 0 9995 2 36122 100.3781 306.4627 0006970 283.8404 76.1933 13.16430690769504 O/OREOS (USA 219) 1 37224U 10062C 25354.40047890 .00001962 00000+0 19570-3 0 9990 2 37224 71.9704 125.0366 0013525 40.4903 319.7271 14.92715185 89951 JUGNU 1 37839U 11058B 25354.17052898 .00000413 00000+0 76002-4 0 9990 2 37839 19.9622 315.9655 0018384 259.0452 208.1635 14.13699442733669 SRMSAT 1 37841U 11058D 25354.52649405 .00000388 00000+0 66766-4 0 9995 2 37841 19.9724 60.8238 0011946 39.0399 89.0233 14.11513957732541 STRAND-1 1 39090U 13009E 25354.46807761 .00000257 00000+0 10100-3 0 9990 2 39090 98.3821 174.1615 0009499 50.1118 310.0903 14.37011112671399 ZACUBE-1 (TSHEPISOSAT) 1 39417U 13066B 25351.39749824 .00003280 00000+0 27002-3 0 9998 2 39417 97.8056 307.9496 0042001 132.1904 228.2897 14.99124350653477 GOMX-1 1 39430U 13066Q 25354.53254797 .00001724 00000+0 26936-3 0 9998 2 39430 97.6583 201.1705 0129181 291.4034 67.3431 14.68619908643683 CUBEBUG-2 (LO-74) 1 39440U 13066AA 25351.56788106 .00003439 00000+0 33426-3 0 9992 2 39440 97.8708 295.2332 0058016 269.4523 90.0047 14.92015584649893 FUNCUBE-1 (AO-73) 1 39444U 13066AE 25354.42870588 .00005567 00000+0 37844-3 0 9992 2 39444 97.8078 317.8019 0041174 90.8082 269.7863 15.06072432652721 UWE-3 1 39446U 13066AG 25353.84861621 .00002262 00000+0 20652-3 0 9995 2 39446 97.8486 304.2036 0050059 195.5950 164.3731 14.95156504650760 UNISAT-6 1 40012U 14033C 25354.41840829 .00002272 00000+0 25618-3 0 9990 2 40012 97.7620 145.7008 0045181 298.3183 61.3479 14.86847848619585 DUCHIFAT-1 1 40021U 14033M 25354.56809777 .00024995 00000+0 60377-3 0 9990 2 40021 98.0768 27.2022 0006719 9.6896 350.4477 15.41153230628059 QB50P1 1 40025U 14033R 25354.54806942 .00006351 00000+0 34764-3 0 9990 2 40025 98.0961 348.6393 0010987 111.7593 248.4808 15.14584709625959 LILACSAT-2 1 40908U 15049K 25354.63860372 .00010279 00000+0 22013-3 0 9993 2 40908 97.4898 20.2646 0008100 167.7261 192.4186 15.44944294568126 FOX-1A (AO-85) 1 40967U 15058D 25354.59590918 .00002722 00000+0 25482-3 0 9996 2 40967 64.7757 113.4815 0134057 126.9711 234.3763 14.89720916 86957 CAS-2T & KS-1Q 1 41847U 16066G 25354.45210445 .00000807 00000+0 12408-3 0 9999 2 41847 98.4029 67.1175 0342756 311.7380 45.4962 14.44147748478996 RADFXSAT (FOX-1B) 1 43017U 17073E 25354.13825460 .00006760 00000+0 32051-3 0 9993 2 43017 97.4936 220.1669 0159393 224.8218 134.0047 15.09005085438353 DIWATA-2B 1 43678U 18084H 25354.59316925 .00002229 00000+0 18692-3 0 9991 2 43678 98.1022 178.3717 0007618 26.8147 333.3467 14.99475480389444 ES'HAIL 2 1 43700U 18090A 25354.55634155 .00000168 00000+0 00000+0 0 9998 2 43700 0.0139 52.4371 0000983 239.7728 23.2610 1.00272302 25883 FOX-1CLIFF (AO-95) 1 43770U 18099N 25354.15650998 .00007795 00000+0 34369-3 0 9995 2 43770 97.4667 50.3845 0008230 255.7032 104.3290 15.22040526385949 ITASAT 1 43786U 18099AE 25354.61787385 .00005124 00000+0 26841-3 0 9994 2 43786 97.4312 44.7652 0011928 252.8514 107.1413 15.16178388385823 JY1SAT (JO-97) 1 43803U 18099AX 25354.61385323 .00010035 00000+0 38029-3 0 9998 2 43803 97.4409 52.4053 0006490 172.6114 187.5222 15.27070632386314 UWE-4 1 43880U 18111E 25354.26248099 .00017652 00000+0 52555-3 0 9999 2 43880 97.5867 270.9966 0007323 241.8083 118.2420 15.34745186383238 TIANYAN 01 1 44881U 19093C 25354.57823397 .00001443 00000+0 17057-3 0 9994 2 44881 97.7760 66.0352 0012726 319.8046 40.2227 14.86122833324884 RS-44 & BREEZE-KM R/B 1 44909U 19096E 25354.36315210 .00000018 00000+0 30629-4 0 9993 2 44909 82.5215 98.5434 0217320 202.2263 156.9309 12.79746140279479 SALSAT 1 46495U 20068K 25353.48061531 .00006196 00000+0 24069-3 0 9995 2 46495 97.8779 341.1169 0009485 202.4725 157.6098 15.26432785287916 XW-3 (CAS-9) 1 50466U 21131B 25354.56522110 .00000650 00000+0 21543-3 0 9998 2 50466 98.5057 82.9480 0003042 276.3761 83.7081 14.41122582209388 GREENCUBE (IO-117) 1 53109U 22080E 25354.35803142 -.00000003 00000+0 00000+0 0 9997 2 53109 70.1582 0.4316 0009105 326.3795 33.6286 6.42583282 80575 STRATOSAT-TK 1 (RS52S) 1 57167U 23091B 25354.26900453 .00276616 00000+0 13708-2 0 9997 2 57167 97.5189 67.3893 0005422 299.5642 60.5085 15.81255952138068 UMKA 1 (RS40S) 1 57172U 23091G 25354.58530238 .00004460 00000+0 22055-3 0 9990 2 57172 97.5331 49.0163 0014129 27.9409 332.2580 15.18264856136888 CUBESX-HSE 3 (RS42S) 1 57178U 23091N 25354.61502876 .00008271 00000+0 32419-3 0 9996 2 57178 97.5365 53.3656 0012177 10.1853 349.9629 15.25966118137141 MONITOR-3 (RS58S) 1 57180U 23091Q 25354.62795392 .00006977 00000+0 29418-3 0 9993 2 57180 97.5358 52.0491 0013083 14.4426 345.7182 15.23562207137067 MONITOR-4 (RS57S) 1 57182U 23091S 25354.61704465 .00006536 00000+0 27522-3 0 9990 2 57182 97.5352 51.9994 0013107 14.9888 345.1735 15.23632437137064 MONITOR-2 (RS39S) 1 57184U 23091U 25354.60475888 .00003313 00000+0 17179-3 0 9992 2 57184 97.5357 49.0285 0012188 20.7285 339.4439 15.16810086136860 SVYATOBOR 1 (RS60S) 1 57187U 23091X 25354.64051251 .00006469 00000+0 27846-3 0 9990 2 57187 97.5364 52.6777 0010254 7.9690 352.1707 15.22917413137103 VIZARD-METEO (RS38S) 1 57189U 23091Z 25354.62226507 .00010014 00000+0 35158-3 0 9994 2 57189 97.5356 56.1298 0008058 355.8724 4.2448 15.29581948137334 NANOZOND 1 (RS49S) 1 57190U 23091AA 25354.60390809 .00051273 00000+0 78468-3 0 9994 2 57190 97.5279 64.8648 0004266 328.4748 31.6249 15.54205745137928 POLYTECH-UNIVERSE 3 (R*) 1 57191U 23091AB 25354.58794090 .00003628 00000+0 18657-3 0 9997 2 57191 97.5329 48.5245 0017062 34.9860 325.2490 15.16976713136858 UTMN 2 (RS27S) 1 57203U 23091AP 25354.60490181 .00008321 00000+0 31740-3 0 9991 2 57203 97.5356 54.7653 0008877 0.0223 0.1014 15.26903338137244 KUZGTU 1 (RS47S) 1 57217U 23091AV 25354.60324075 .00007557 00000+0 30475-3 0 9998 2 57217 97.5338 52.6235 0012385 12.8985 347.2567 15.25042292137113 SONATE-2 1 59112U 24043Q 25354.61787845 .00019695 00000+0 41190-3 0 9993 2 59112 97.5335 131.1656 0009292 134.3401 225.8611 15.45471040100190 MESAT1 1 60209U 24125G 25354.55306915 .00022790 00000+0 45528-3 0 9990 2 60209 97.2514 204.9331 0014747 149.4882 210.7229 15.46704880 81812 OOV-CUBE (TUBSAT-30) 1 60240U 24128F 25354.40463111 .00002093 00000+0 17083-3 0 9993 2 60240 61.9945 128.5024 0058279 95.8101 264.9638 15.01652648 79254 COLIBRI-S (RS67S) 1 61746U 24199M 25354.61861679 .00013027 00000+0 33276-3 0 9998 2 61746 97.3252 222.5538 0009010 198.5999 161.4919 15.39560060109861 HORS 3 (RS81S) 1 61753U 24199U 25354.59668392 .00018086 00000+0 41202-3 0 9998 2 61753 97.3223 223.1767 0006952 201.9615 158.1336 15.42968929109916 HORS 4 (RS82S) 1 61754U 24199V 25354.58748089 .00020837 00000+0 44616-3 0 9999 2 61754 97.3204 223.6138 0007024 199.6934 160.4044 15.44781679109943 HORIZON (RS59S) 1 61757U 24199Y 25354.60100444 .00041716 00000+0 63202-3 0 9993 2 61757 97.3211 225.8381 0006439 175.7282 184.4028 15.54514568110085 ARCTICSAT 1 (RS74S) 1 61762U 24199AD 25354.60499433 .00036557 00000+0 58748-3 0 9994 2 61762 97.3220 225.6775 0006731 172.6190 187.5163 15.52908182110075 SIT-2086 1 61764U 24199AF 25354.59958167 .00022700 00000+0 51374-3 0 9991 2 61764 97.3221 223.9343 0007011 191.2867 168.8224 15.43118808106804 MORDOVIA-IOT (RS50S) 1 61765U 24199AG 25354.29412977 .00130600 00000+0 10022-2 0 9996 2 61765 97.3107 228.2534 0005160 140.8918 219.2719 15.71661909107074 RUZAEVKA 390 (RS44S) 1 61766U 24199AH 25354.62778360 .00067101 00000+0 73260-3 0 9994 2 61766 97.3163 227.5141 0005197 154.4227 205.7290 15.63131243107053 HYPERVIEW 1G (RS66S) 1 61772U 24199AP 25354.62826834 .00030769 00000+0 57941-3 0 9999 2 61772 97.3201 224.1652 0008347 201.7852 158.3045 15.48439925106830 ALTAIR (RS65S) 1 61779U 24199AW 25354.57367446 .00007265 00000+0 23033-3 0 9999 2 61779 97.3255 220.2906 0012651 222.6026 137.4236 15.32929733109717 ASRTU-1 (AO-123) 1 61781U 24199AY 25354.57575845 .00007238 00000+0 23542-3 0 9991 2 61781 97.3243 219.9405 0013123 224.1773 135.8422 15.32103747106543 TUSUR GO (RS78S) 1 61782U 24199AZ 25354.60493800 .00043833 00000+0 67917-3 0 9991 2 61782 97.3168 224.9215 0007225 195.1580 164.9458 15.53878811106887 SAMSAT-IONOSPHERE (RS7*) 1 61784U 24199BB 25354.59444005 .00019625 00000+0 44055-3 0 9994 2 61784 97.3217 222.8869 0010139 210.1326 149.9340 15.43362699109898 RTU MIREA 1 (RS51S) 1 61785U 24199BC 25354.60556030 .00022601 00000+0 48701-3 0 9999 2 61785 97.3213 223.1655 0009779 207.3360 152.7375 15.44554103106763 HADES-R 1 62690U 25009CK 25353.50180803 .00139512 00000+0 16338-2 0 9995 2 62690 97.3864 76.3943 0001149 263.7674 96.3452 15.61075237 51837 TEVEL2-4 1 63213U 25052D 25354.44763436 .00012823 00000+0 48148-3 0 9998 2 63213 97.4108 246.2241 0004651 46.5918 313.5707 15.27321202 42766 TEVEL2-5 1 63214U 25052E 25353.66723739 .00012195 00000+0 45943-3 0 9996 2 63214 97.4106 245.4353 0004690 48.6434 311.5207 15.27223416 42647 TEVEL2-6 1 63215U 25052F 25354.26445785 .00012523 00000+0 47215-3 0 9995 2 63215 97.4108 246.0166 0004716 46.5354 313.6277 15.27191794 42739 TEVEL2-1 1 63217U 25052H 25354.43983044 .00011877 00000+0 45242-3 0 9990 2 63217 97.4081 245.9953 0005130 55.2100 304.9621 15.26862229 42755 TEVEL2-3 1 63218U 25052J 25354.17677809 .00011888 00000+0 45259-3 0 9991 2 63218 97.4083 245.7401 0005163 55.8382 304.3346 15.26878860 42710 TEVEL2-2 1 63219U 25052K 25354.44059172 .00012253 00000+0 46660-3 0 9993 2 63219 97.4083 245.9965 0005102 55.6601 304.5120 15.26864733 42753 TEVEL2-9 1 63237U 25052AD 25354.28003065 .00010872 00000+0 43333-3 0 9994 2 63237 97.4144 245.5330 0009120 61.2049 299.0104 15.25348447 42697 TEVEL2-7 1 63238U 25052AE 25354.42591503 .00010646 00000+0 42628-3 0 9995 2 63238 97.4148 245.6501 0009235 60.9778 299.2385 15.25196284 42711 TEVEL2-8 1 63239U 25052AF 25354.16924755 .00010985 00000+0 44018-3 0 9997 2 63239 97.4147 245.3801 0009227 61.7894 298.4274 15.25164734 42678 HADES-ICM 1 63492U 25052BN 25354.49448221 .00044730 00000+0 11053-2 0 9990 2 63492 97.4083 248.1003 0011190 53.4081 306.8193 15.40288790 42895 INNOSAT 16 (RS92S7) 1 64878U 25155C 25354.57104646 .00003133 00000+0 13671-3 0 9993 2 64878 97.4342 317.8598 0013078 93.3462 266.9271 15.22816978 53461 GEOSCAN 6 (RS92S6) 1 64879U 25155D 25354.61173746 .00007386 00000+0 29237-3 0 9995 2 64879 97.4344 318.2814 0010779 88.5425 271.7048 15.25683195 53495 GEOSCAN 1 (RS92S1) 1 64880U 25155E 25354.60008776 .00008664 00000+0 33961-3 0 9995 2 64880 97.4345 318.3029 0010705 89.0800 271.1665 15.25958014 53493 239ALFEROV (RS61S) 1 64881U 25155F 25354.55699254 .00009713 00000+0 37012-3 0 9994 2 64881 97.4355 318.3814 0010560 89.0053 271.2396 15.26864437 53494 GEOSCAN 2 (RS92S2) 1 64890U 25155Q 25354.56300107 .00008024 00000+0 31174-3 0 9998 2 64890 97.4343 318.3404 0009946 78.9552 281.2804 15.26286331 53499 GEOSCAN 5 (RS92S5) 1 64891U 25155R 25354.58506612 .00010084 00000+0 38019-3 0 9994 2 64891 97.4347 318.4738 0009215 93.7178 266.5115 15.27220419 53502 GEOSCAN 4 (RS92S4) 1 64892U 25155S 25354.58180093 .00010279 00000+0 38662-3 0 9996 2 64892 97.4350 318.4819 0009254 94.2974 265.9322 15.27292057 53500 GEOSCAN 3 (RS92S3) 1 64893U 25155T 25354.61327654 .00011004 00000+0 40414-3 0 9992 2 64893 97.4345 318.5862 0009110 95.7920 264.4358 15.28065021 53516 INNOSAT 3 (RS92S0) 1 64894U 25155U 25354.57802763 .00019112 00000+0 64537-3 0 9997 2 64894 97.4329 318.7728 0009092 96.3122 263.9155 15.30680865 53524